Change the Weather History Date:

Saturday, January 5, 2013

  Actual Average Record
Temperature  
Mean Temperature 37 °F 29 °F  
Max Temperature 47 °F 39 °F 67 °F (2012)
Min Temperature 27 °F 18 °F 0 °F (2014)
Degree Days  
Heating Degree Days 28 36  
Month to date heating degree days 201 180  
Since 1 July heating degree days 2141 2223  
Cooling Degree Days 0 0  
Month to date cooling degree days 0 0  
Year to date cooling degree days 0 0  
Moisture  
Dew Point 27 °F    
Average Humidity 66    
Maximum Humidity 78    
Minimum Humidity 53    
Precipitation  
Precipitation 0.00 in 0.03 in 0.21 in (2005)
Month to date precipitation 0.00 0.15  
Year to date precipitation 0.00 0.15  
Sea Level Pressure  
Sea Level Pressure 30.18 in    
Wind  
Wind Speed 9 mph (SW)    
Max Wind Speed 22 mph    
Max Gust Speed 26 mph    
Visibility 10 miles    
Events      
T = Trace of Precipitation, MM = Missing Value Source: NWS Daily Summary

Daily Weather History Graph

Daily Weather History Graph

Search for Another Location

Airport or City:

Trip Planner

Search our weather history database for the weather conditions in past years. The results will help you decide how hot, cold, wet, or windy it might be!

Date:

Astronomy

Jan. 05, 2013 Rise Set
Actual Time 7:40 AM CST 5:13 PM CST
Civil Twilight 7:10 AM CST 5:42 PM CST
Nautical Twilight 6:37 AM CST 6:16 PM CST
Astronomical Twilight 6:04 AM CST 6:48 PM CST
Moon 12:49 AM CST (1/5) 12:01 PM CST (1/5)
Length of Visible Light 10h 32m
Length of Day
9h 32m
Last Quarter, 44% of the Moon is Illuminated
Jan 5
Last Quarter
Jan 11
New
Jan 18
First Quarter
Jan 26
Full
Feb 3
Last Quarter

Hourly Weather History & Observations

Time (CST) Temp. Windchill Dew Point Humidity Pressure Visibility Wind Dir Wind Speed Gust Speed Precip Events Conditions
12:52 AM 33.1 °F - 24.1 °F 70% 30.25 in 10.0 mi Calm Calm - N/A   Mostly Cloudy
1:52 AM 34.0 °F 28.0 °F 25.0 °F 70% 30.24 in 10.0 mi SSW 6.9 mph - N/A   Mostly Cloudy
2:52 AM 33.1 °F 27.7 °F 25.0 °F 72% 30.23 in 10.0 mi SSW 5.8 mph - N/A   Overcast
3:52 AM 34.0 °F 31.0 °F 25.0 °F 70% 30.22 in 10.0 mi South 3.5 mph - N/A   Overcast
4:52 AM 34.0 °F 28.8 °F 26.1 °F 73% 30.20 in 10.0 mi South 5.8 mph - N/A   Mostly Cloudy
5:52 AM 34.0 °F 29.8 °F 26.1 °F 73% 30.20 in 10.0 mi WSW 4.6 mph - N/A   Overcast
6:52 AM 36.0 °F 31.1 °F 28.0 °F 73% 30.20 in 10.0 mi SW 5.8 mph - N/A   Overcast
7:52 AM 36.0 °F 29.0 °F 28.0 °F 73% 30.21 in 10.0 mi South 9.2 mph - N/A   Overcast
8:52 AM 36.0 °F 28.5 °F 28.9 °F 76% 30.19 in 10.0 mi South 10.4 mph - N/A   Overcast
9:52 AM 37.9 °F 32.1 °F 30.0 °F 73% 30.20 in 10.0 mi South 8.1 mph - N/A   Overcast
10:52 AM 41.0 °F 32.8 °F 30.0 °F 65% 30.19 in 10.0 mi SSW 16.1 mph 21.9 mph N/A   Overcast
11:52 AM 42.1 °F 34.9 °F 30.9 °F 65% 30.16 in 10.0 mi SW 13.8 mph 21.9 mph N/A   Mostly Cloudy
12:52 PM 45.0 °F 38.2 °F 30.9 °F 58% 30.11 in 10.0 mi SW 15.0 mph - N/A   Partly Cloudy
1:52 PM 45.0 °F 37.1 °F 30.0 °F 56% 30.09 in 10.0 mi SW 19.6 mph 25.3 mph N/A   Mostly Cloudy
2:52 PM 46.0 °F 39.3 °F 30.0 °F 54% 30.07 in 10.0 mi SW 16.1 mph 25.3 mph N/A   Partly Cloudy
3:52 PM 46.0 °F 40.6 °F 30.0 °F 54% 30.09 in 10.0 mi WSW 11.5 mph 23.0 mph N/A   Partly Cloudy
4:52 PM 45.0 °F 39.3 °F 30.0 °F 56% 30.10 in 10.0 mi West 11.5 mph 19.6 mph N/A   Clear
5:52 PM 41.0 °F 33.9 °F 28.9 °F 62% 30.12 in 10.0 mi West 12.7 mph - N/A   Clear
6:52 PM 37.0 °F 28.1 °F 27.0 °F 67% 30.16 in 10.0 mi WNW 15.0 mph 23.0 mph N/A   Clear
7:52 PM 34.0 °F 25.0 °F 26.1 °F 73% 30.19 in 10.0 mi WNW 12.7 mph - N/A   Clear
8:52 PM 30.0 °F 24.1 °F 23.0 °F 75% 30.20 in 10.0 mi WNW 5.8 mph - N/A   Clear
9:52 PM 28.9 °F - 23.0 °F 78% 30.21 in 10.0 mi Calm Calm - N/A   Clear
10:52 PM 28.0 °F 24.2 °F 21.0 °F 75% 30.21 in 10.0 mi North 3.5 mph - N/A   Clear
11:52 PM 27.0 °F 19.5 °F 21.0 °F 78% 30.22 in 10.0 mi NNW 6.9 mph - N/A   Clear